Flag for Canada Weather past 2 weeks in Resolute Bay, Nunavut, Canada

Now
34 °F

Clear.


Feels Like: 34 °F
Forecast: 29 / 42 °F
Wind: No wind

Location: Resolute

Current Time: Sep 1, 2015 at 6:09:23 AM

Latest Report: Sep 1, 2015 at 5:00 AM


Visibility: 15 mi

Pressure: 30.13 "Hg

Humidity: 65%

Dew point: 23 °F

Location of Resolute BayLocation

Historic Weather in Resolute Bay — Graph

°F

Resolute Bay temperature yesterday

Maximum temperature yesterday: 55 °F (at 12:00 PM)
Minimum temperature yesterday: 32 °F (at 2:00 AM)
Average temperature yesterday: 40 °F

Past Weeks' High & Low Weather Summary

 TemperatureHumidityPressure
High55 °F (Aug 31, 12:00 PM)100% (Aug 17, 5:00 AM)30.41 "Hg (Aug 17, 5:00 AM)
Low28 °F (Aug 23, 3:00 AM)41% (Aug 31, 12:00 PM)29.69 "Hg (Aug 17, 5:00 AM)
Average35 °F87%30.07 "Hg
* Reported Aug 17 5:00 AM — Sep 1 5:00 AM, Resolute Bay, Weather by CustomWeather, © 2015

Note: Actual official high and low records may vary slightly from our data, if they occured in-between our weather recording intervals... More about our weather records

Advertising

Resolute Bay weather history for previous 24 hours

 ConditionsComfort  
Time TempWeatherWind HumidityBarometerVisibility
5:00 AM
Tue, Sep 1
34 °FClear.No wind65%30.13 "Hg15 mi
4:00 AM34 °FClear.6 mph65%30.13 "Hg15 mi
3:00 AM34 °FClear.6 mph70%30.13 "Hg15 mi
2:00 AM36 °FClear.6 mph65%30.12 "Hg15 mi
1:00 AM37 °FClear.No wind65%30.13 "Hg15 mi
12:00 AM36 °FClear.2 mph70%30.12 "Hg15 mi
11:00 PM
Mon, Aug 31
36 °FPassing clouds.2 mph70%30.12 "Hg15 mi
10:00 PM37 °FSunny.10 mph70%30.11 "Hg15 mi
9:00 PM39 °FSunny.10 mph65%30.11 "Hg15 mi
8:00 PM41 °FSunny.12 mph66%30.12 "Hg15 mi
7:00 PM41 °FSunny.12 mph57%30.12 "Hg15 mi
6:00 PM43 °FSunny.12 mph57%30.11 "Hg15 mi
5:00 PM45 °FSunny.12 mph53%30.11 "Hg15 mi
4:00 PM45 °FSunny.12 mph53%30.11 "Hg15 mi
3:00 PM43 °FSunny.6 mph57%30.11 "Hg15 mi
2:00 PM48 °FSunny.6 mph54%30.11 "Hg15 mi
1:00 PM52 °FSunny.6 mph50%30.11 "Hg15 mi
12:00 PM55 °FSunny.6 mph41%30.10 "Hg15 mi
11:00 AM48 °FSunny.6 mph54%30.09 "Hg15 mi
10:00 AM41 °FSunny.12 mph66%30.09 "Hg15 mi
9:00 AM39 °FSunny.12 mph65%30.08 "Hg15 mi
8:00 AM37 °FSunny.6 mph65%30.08 "Hg15 mi
7:00 AM36 °FSunny.2 mph65%30.07 "Hg15 mi
6:00 AM34 °FPassing clouds.6 mph70%30.06 "Hg15 mi
Weather by CustomWeather, © 2015

See weather overviewHow to use our weather pages